Location: La Bastide
(43.1661°N, 1.2755°E)
Time: 08:44:32
(UTC+00:00)

Cosmos 1953 Rocket - Pass Details

Date: 19 March 2026
Orbit: 599 x 626 km, 82.5° (Epoch: 18 April)

Event Time Altitude Azimuth Distance (km) Brightness Sun altitude
Rises 04:42:26 0° 2° (N) 2,893 7.2 -14.9°
Reaches altitude 10° 04:44:56 10° 15° (NNE) 1,988 6.5 -14.5°
Maximum altitude 04:48:43 27° 74° (ENE) 1,187 5.9 -13.8°
Drops below altitude 10° 04:52:29 10° 133° (SE) 1,987 6.6 -13.1°
Sets 04:54:59 0° 145° (SE) 2,892 7.3 -12.7°
